Location: Boda
(47.1872°N, 9.5454°E)
Time: 17:46:19
(UTC+00:00)

Cosmos 1726 - Pass Details

Date: 14 May 2021
Orbit: 479 x 498 km, 82.5° (Epoch: 15 June)

Event Time Altitude Azimuth Distance (km) Brightness Sun altitude
Rises 00:25:23 0° 351° (N) 2,586 6.8 -22.5°
Reaches altitude 10° 00:27:31 10° 351° (N) 1,696 5.7 -22.4°
Enters shadow 00:31:04 81° 13° (NNE) 502 2.1 -22.2°
